Wetbulb
69.94 71.01 71.46 70.95 71.80 70.77 70.51 70.25 68.98 66.27 66.42 69.90 71.30 75.67 74.81 75.43 75.97 76.84 77.91 74.03 72.17 71.53 70.26 69.83 69.74 70.18 70.69 71.45 71.95 72.15 72.85 73.38 73.80 73.34 73.45 74.41 75.28 75.89
68.07 68.97 69.41 68.51 69.17 69.54 69.57 69.32 68.81 67.61 65.45 68.48 69.52 71.41 74.26 74.67 75.84 75.62 76.56 73.49 71.94 70.71 69.83 68.96 68.96 69.42 69.91 70.38 70.52 70.81 70.85 71.24 71.74 72.16 72.66 72.91 73.67 74.17
68.31 68.03 68.50 69.38 67.76 67.67 67.88 67.73 67.19 67.43 65.65 67.54 68.99 71.03 72.48 72.70 73.93 74.91 75.27 75.33 75.60 70.45 69.60 69.03 68.38 68.54 68.96 69.27 69.20 69.41 69.21 69.38 70.17 71.10 71.82 72.24 72.54 73.12
68.06 67.91 67.90 68.65 68.84 69.41 68.43 68.48 67.77 68.83 66.93 66.81 68.70 68.84 70.68 72.64 72.63 73.46 72.66 73.31 74.10 72.66 69.90 68.62 67.73 67.28 67.03 66.92 66.97 67.01 66.27 66.12 67.08 68.36 70.07 70.86 71.30 71.57
68.44 67.79 67.31 67.84 67.69 68.77 69.31 68.71 68.52 68.50 68.43 67.63 67.18 69.02 69.77 70.14 71.18 71.97 72.11 72.40 72.80 73.45 69.37 68.33 67.46 66.97 66.09 65.22 64.75 63.86 62.57 62.19 62.98 64.34 66.21 67.23 68.83 70.25
69.05 68.98 68.04 66.32 66.89 67.36 67.53 69.08 68.87 68.55 69.08 67.12 67.04 66.92 67.76 69.75 69.59 68.45 68.97 70.59 70.57 71.78 72.47 70.58 71.04 70.67 68.76 66.11 65.32 64.62 61.81 60.29 59.93 60.79 62.06 62.68 64.47 66.48
68.33 68.05 67.89 65.14 63.12 63.64 65.55 67.07 67.76 67.20 66.85 66.60 65.77 66.81 67.24 68.21 67.88 68.25 67.96 68.51 70.94 72.95 72.02 72.34 72.45 72.29 73.54 69.28 71.06 68.82 65.04 62.27 60.41 59.93 59.02 59.21 61.18 62.06
63.60 65.42 66.10 65.11 65.48 63.79 63.35 63.21 64.03 66.32 66.56 66.13 65.51 65.58 66.29 67.60 68.59 67.51 67.92 68.02 66.44 72.73 71.09 70.39 73.30 71.85 70.65 72.20 63.98 63.48 63.16 63.02 62.08 60.86 59.93 59.21 59.93 59.57
62.24 62.80 63.48 65.18 65.20 65.88 65.41 64.58 64.33 63.84 63.73 66.81 65.51 65.03 67.20 68.02 67.36 65.35 68.00 67.56 67.48 70.09 69.73 68.20 72.11 70.45 71.86 69.66 61.36 61.24 60.73 60.18 59.72 59.14 59.30 59.23 59.61 59.05
61.76 62.66 63.31 64.12 62.55 63.10 64.20 64.18 65.21 66.61 67.33 67.22 67.66 66.99 66.59 66.78 67.17 67.51 68.63 69.73 70.23 71.62 68.90 66.45 70.71 69.50 73.36 67.10 58.98 58.43 57.49 57.10 57.15 56.80 55.85 54.89 54.36 55.02
60.55 62.67 62.90 63.14 57.73 58.10 63.59 62.32 63.70 64.84 61.72 60.96 60.42 58.94 59.51 58.85 61.97 66.80 66.04 65.39 65.08 67.98 65.79 65.38 67.03 67.05 69.78 71.53 66.23 59.21 57.02 55.81 55.39 55.25 55.14 54.25 52.31 52.11
59.24 62.74 59.09 59.39 55.52 55.10 62.20 62.62 61.42 62.57 64.90 64.73 64.38 62.25 62.62 63.74 63.07 67.19 65.55 63.80 64.14 65.95 62.29 62.37 65.68 64.82 64.88 70.99 71.30 67.60 65.34 55.94 54.95 54.37 54.32 53.41 51.96 64.45
56.07 60.06 62.48 54.83 53.70 53.72 54.94 62.66 59.72 59.13 63.05 64.01 64.59 64.86 65.69 65.49 64.87 63.80 64.09 62.85 61.89 62.36 59.33 61.33 62.78 62.21 62.42 62.74 65.04 66.04 66.81 65.11 65.65 63.36 52.75 52.43 52.74 53.95
56.55 59.78 61.29 52.48 52.18 53.49 55.83 54.93 55.04 55.91 62.41 62.40 62.37 63.04 61.88 61.74 61.91 61.74 62.58 61.96 61.45 60.33 61.02 59.97 57.74 57.35 56.23 56.60 57.29 61.11 61.36 61.61 62.14 60.90 60.40 56.69 55.56 54.95
58.60 56.22 53.57 52.25 52.78 55.18 56.18 55.48 54.76 60.64 59.80 58.74 59.14 59.70 59.40 59.14 59.35 59.62 60.77 60.48 61.65 60.60 59.49 59.09 57.13 57.17 55.34 54.21 53.97 55.18 54.68 57.09 59.24 59.38 58.54 58.56 58.44 58.90
57.48 59.51 57.48 55.27 53.45 54.35 56.59 57.85 59.72 59.17 57.48 56.76 57.68 59.16 59.01 57.70 57.63 57.84 56.07 56.35 55.11 56.79 59.19 59.42 58.95 58.06 55.27 55.34 55.04 54.50 56.04 54.84 57.71 57.85 57.57 58.01 58.53 58.62
54.25 58.47 58.49 58.93 58.74 58.82 59.18 59.15 59.18 59.00 57.78 58.07 57.61 57.37 57.43 56.88 56.60 57.70 56.78 56.15 54.74 55.67 56.59 58.59 60.32 59.75 57.98 57.62 55.11 55.95 55.47 55.75 56.56 56.82 57.23 56.00 56.84 57.59
54.13 57.17 57.73 58.16 57.65 57.65 57.80 58.02 58.40 57.64 57.89 57.70 57.28 57.37 56.71 56.53 56.07 56.76 56.40 55.90 55.56 56.25 56.49 57.29 57.17 56.60 56.65 59.51 59.08 55.10 55.02 54.74 55.64 56.66 56.31 54.08 54.53 57.16
54.10 56.99 57.33 58.09 58.38 58.02 57.71 57.89 57.46 58.08 60.08 57.96 57.03 57.03 57.08 57.11 55.80 54.88 55.52 56.05 55.77 56.58 56.75 57.46 56.75 55.82 53.55 52.23 56.22 52.79 53.65 54.34 54.24 54.02 55.06 54.69 54.02 55.53
55.05 57.10 57.88 58.57 58.59 58.45 58.09 57.76 58.07 58.32 57.99 57.67 57.07 57.09 57.23 56.83 56.08 55.53 55.51 56.14 56.37 56.60 56.19 56.91 56.97 56.49 54.72 52.80 52.60 55.15 49.98 54.73 54.18 53.75 53.79 55.03 55.72 54.53
59.55 59.40 59.51 59.15 58.79 58.94 58.89 58.56 59.00 58.51 57.96 57.75 57.14 56.93 56.88 56.76 56.28 56.00 55.96 51.46 52.99 55.87 55.63 56.38 57.63 54.48 57.58 57.37 53.77 54.30 56.47 49.75 53.34 54.81 54.55 53.05 52.50 53.33
59.58 60.02 60.48 60.51 60.06 59.80 59.75 59.53 59.20 58.61 58.68 58.06 57.61 57.07 57.05 57.11 56.32 55.98 56.22 56.29 56.62 56.65 56.72 57.58 59.08 58.05 56.75 54.78 53.00 54.16 54.50 56.43 54.75 51.30 51.50 52.70 52.90 50.47
60.91 61.13 61.60 61.85 61.62 61.22 60.45 59.75 59.24 59.18 59.35 59.24 58.83 57.61 57.37 56.56 57.02 56.65 56.85 57.09 57.09 56.75 56.94 56.40 57.15 57.41 56.11 54.94 52.63 53.43 55.05 54.96 54.92 54.58 55.48 54.01 52.46 52.60
MSLP
1015.31 1015.32 1015.33 1014.45 1014.43 1014.35 1014.50 1013.85 1013.21 1012.29 1011.39 1011.01 1011.26 1011.49 1011.68 1011.78 1011.88 1012.01 1011.69 1011.94 1012.39 1012.65 1012.75 1012.85 1012.96 1013.12 1013.25 1013.42 1013.56 1013.66 1013.73 1013.76 1013.89 1013.97 1013.92 1014.14 1014.41 1014.76
1015.46 1015.64 1015.72 1014.95 1014.80 1014.48 1014.19 1013.83 1013.51 1012.94 1012.24 1011.89 1011.70 1011.77 1011.89 1012.13 1011.59 1011.76 1011.30 1011.77 1011.75 1012.06 1012.28 1012.40 1012.44 1012.51 1012.60 1012.76 1012.95 1013.05 1013.12 1013.13 1013.20 1013.25 1013.24 1013.32 1013.61 1013.89
1016.11 1016.01 1015.91 1015.84 1015.26 1014.70 1014.46 1014.21 1013.87 1013.43 1012.63 1011.99 1011.99 1011.87 1012.09 1012.15 1011.71 1011.50 1011.24 1010.55 1010.11 1010.91 1011.53 1011.87 1011.99 1012.09 1012.15 1012.21 1012.31 1012.47 1012.67 1012.68 1012.57 1012.59 1012.72 1012.70 1013.06 1013.14
1015.97 1015.87 1015.51 1015.18 1015.28 1014.81 1014.44 1014.34 1014.00 1013.88 1013.38 1012.86 1012.58 1012.35 1012.13 1011.80 1011.72 1011.73 1011.23 1010.55 1010.01 1010.81 1011.10 1011.30 1011.46 1011.59 1011.68 1011.75 1011.88 1012.05 1012.14 1012.19 1012.33 1012.46 1012.38 1012.44 1012.40 1012.44
1015.87 1016.03 1016.02 1015.86 1015.44 1015.13 1014.78 1014.13 1013.41 1013.37 1013.25 1012.94 1012.45 1012.13 1011.83 1011.68 1011.48 1011.35 1011.07 1010.78 1010.33 1010.12 1010.15 1010.53 1010.86 1011.02 1011.18 1011.29 1011.44 1011.59 1011.74 1011.77 1011.87 1011.81 1011.80 1011.88 1012.15 1012.21
1015.87 1015.91 1016.07 1016.19 1015.84 1015.61 1015.01 1014.56 1014.24 1014.00 1013.43 1013.23 1012.17 1011.75 1011.54 1011.36 1011.57 1010.97 1010.39 1010.05 1009.73 1009.62 1009.52 1009.96 1010.28 1010.38 1010.48 1010.67 1010.80 1010.95 1011.09 1011.18 1011.21 1011.31 1011.42 1011.54 1011.65 1011.91
1016.04 1015.90 1015.95 1016.41 1016.49 1016.39 1015.74 1015.22 1014.97 1014.21 1013.33 1012.75 1012.55 1011.93 1011.49 1011.71 1011.74 1011.47 1010.77 1010.23 1009.84 1009.78 1009.52 1009.38 1009.36 1009.03 1008.88 1009.99 1010.30 1010.61 1010.81 1010.92 1011.00 1011.00 1011.10 1011.18 1011.32 1011.54
1016.20 1015.97 1016.17 1016.22 1016.15 1016.17 1016.01 1015.79 1015.68 1015.00 1014.39 1014.04 1013.59 1013.32 1013.59 1013.01 1012.60 1012.75 1011.85 1010.90 1009.80 1010.16 1010.32 1009.14 1009.06 1009.18 1009.95 1009.92 1011.32 1011.01 1010.89 1010.79 1010.78 1010.91 1011.01 1011.08 1011.20 1011.40
1016.60 1016.04 1015.72 1015.33 1016.04 1015.97 1015.58 1015.31 1015.20 1015.28 1015.14 1014.69 1014.29 1014.28 1013.90 1013.84 1013.78 1013.39 1012.44 1012.02 1011.18 1011.07 1010.82 1009.45 1009.39 1009.41 1010.30 1011.24 1012.00 1011.67 1011.47 1011.32 1011.22 1011.16 1011.14 1011.09 1011.05 1011.08
1016.58 1016.30 1015.97 1015.88 1016.63 1016.50 1015.79 1015.20 1014.59 1014.66 1014.46 1014.40 1014.26 1014.34 1014.45 1014.48 1013.98 1013.25 1012.47 1012.07 1011.12 1011.47 1011.53 1010.08 1009.84 1009.75 1010.63 1011.50 1012.12 1012.00 1011.86 1011.77 1011.65 1011.56 1011.43 1011.23 1011.02 1010.85
1016.35 1016.33 1016.37 1015.99 1016.72 1016.80 1015.91 1015.25 1014.70 1014.26 1014.51 1014.70 1014.81 1014.83 1014.84 1014.74 1014.29 1013.05 1011.53 1011.15 1010.31 1011.41 1011.96 1011.34 1010.41 1010.01 1010.28 1010.94 1011.44 1011.78 1011.70 1011.76 1011.77 1011.56 1011.33 1011.16 1010.91 1010.51
1016.00 1016.04 1016.51 1016.69 1016.79 1016.76 1016.15 1015.16 1014.66 1014.40 1014.09 1014.05 1014.20 1014.31 1014.14 1013.86 1013.96 1013.28 1012.64 1011.70 1011.19 1011.14 1012.70 1012.23 1010.89 1010.67 1009.90 1010.68 1010.79 1010.98 1011.00 1011.17 1011.35 1011.27 1011.17 1011.13 1010.95 1009.79
1015.48 1015.19 1015.46 1016.58 1016.74 1016.67 1016.34 1015.37 1015.27 1015.19 1014.18 1013.77 1013.33 1013.12 1013.24 1013.18 1013.22 1013.51 1013.62 1012.91 1012.49 1012.02 1013.53 1012.96 1011.68 1011.47 1010.88 1010.23 1009.91 1009.85 1010.01 1010.11 1010.20 1010.32 1011.06 1010.70 1010.82 1010.92
1015.75 1015.27 1015.77 1016.45 1016.57 1016.43 1016.11 1015.87 1015.44 1014.99 1013.59 1013.17 1012.98 1012.96 1013.08 1013.17 1013.35 1013.75 1013.98 1013.95 1013.79 1013.86 1013.81 1013.91 1012.71 1012.32 1011.97 1010.89 1010.20 1010.01 1010.14 1010.18 1010.15 1010.15 1010.07 1010.08 1010.12 1010.38
1015.69 1015.86 1016.07 1016.19 1016.09 1015.73 1015.75 1015.63 1015.17 1013.92 1013.44 1013.09 1012.88 1013.05 1013.43 1013.58 1013.91 1013.57 1013.62 1013.79 1013.97 1013.79 1013.69 1013.97 1013.64 1013.09 1012.15 1011.30 1010.78 1010.54 1010.58 1010.01 1009.90 1010.01 1010.05 1009.98 1009.95 1009.75
1015.77 1015.27 1015.39 1015.55 1015.31 1015.16 1015.11 1014.96 1014.23 1013.93 1013.83 1013.40 1013.16 1013.28 1013.52 1013.42 1013.26 1013.39 1013.04 1013.01 1012.78 1012.70 1013.28 1013.62 1013.63 1013.35 1012.35 1011.70 1011.34 1010.86 1010.49 1010.06 1009.87 1009.91 1009.96 1010.01 1009.86 1009.39
1015.48 1014.63 1014.10 1013.82 1013.76 1013.63 1013.59 1013.66 1013.71 1013.59 1013.50 1013.27 1013.25 1013.14 1013.15 1013.20 1013.08 1013.25 1013.10 1012.80 1012.47 1012.36 1012.22 1012.38 1012.72 1012.80 1012.38 1012.32 1011.49 1010.84 1010.47 1010.10 1009.89 1009.82 1010.22 1009.67 1009.39 1009.13
1015.28 1014.15 1013.49 1013.28 1013.16 1013.03 1012.92 1012.86 1012.87 1013.19 1013.17 1013.15 1013.07 1012.98 1012.87 1012.79 1012.74 1012.75 1012.83 1012.57 1012.28 1012.05 1012.01 1011.97 1012.04 1011.77 1011.23 1010.67 1010.93 1010.74 1010.56 1010.21 1009.96 1009.90 1009.97 1009.25 1008.63 1008.36
1014.95 1013.73 1013.11 1012.86 1012.70 1012.62 1012.52 1012.45 1012.40 1012.54 1012.96 1013.13 1012.87 1012.65 1012.52 1012.45 1012.56 1012.46 1012.17 1012.06 1011.89 1011.75 1011.75 1011.75 1011.68 1011.50 1010.89 1010.35 1010.48 1011.23 1010.84 1010.47 1010.17 1009.74 1009.28 1008.76 1008.30 1008.00
1014.17 1013.21 1012.54 1012.32 1012.27 1012.21 1012.14 1012.07 1012.02 1012.14 1012.28 1012.45 1012.42 1012.26 1012.13 1012.00 1011.87 1011.79 1011.71 1011.53 1011.44 1011.40 1011.35 1011.29 1011.22 1011.11 1011.00 1010.99 1010.72 1010.59 1010.68 1010.40 1009.80 1009.25 1008.89 1008.55 1008.15 1008.01
1012.12 1011.77 1011.73 1011.69 1011.64 1011.61 1011.67 1011.81 1011.94 1011.79 1011.76 1011.73 1011.72 1011.69 1011.55 1011.46 1011.35 1011.31 1011.18 1011.43 1011.50 1011.39 1010.94 1010.59 1010.55 1011.61 1011.54 1011.21 1010.31 1009.21 1008.88 1009.52 1009.42 1009.22 1008.92 1008.44 1007.84 1007.31
1011.24 1010.90 1010.74 1010.84 1010.98 1011.12 1011.11 1011.10 1011.15 1011.17 1011.26 1011.32 1011.35 1011.32 1011.10 1011.00 1010.83 1010.73 1010.68 1010.53 1010.37 1010.26 1010.08 1010.06 1010.17 1010.24 1010.15 1009.90 1009.37 1008.76 1008.29 1008.22 1008.27 1008.18 1007.90 1007.87 1007.39 1006.58
1010.33 1010.12 1009.95 1010.01 1010.13 1010.25 1010.39 1010.31 1010.24 1010.18 1010.09 1010.22 1010.32 1010.32 1010.38 1010.24 1010.25 1010.19 1010.14 1010.07 1009.92 1009.77 1009.61 1009.45 1009.39 1009.21 1009.14 1008.93 1008.74 1008.14 1007.65 1007.26 1006.70 1006.43 1006.16 1005.64 1005.76 1005.62
Wind_Speed
6 6 7 7 5 6 6 8 7 9 7 3 3 2 5 6 3 8 8 4 7 8 9 9 10 10 11 11 11 11 13 13 13 14 16 21 22 24
5 4 6 7 6 6 7 7 8 8 9 8 6 9 7 8 3 7 7 4 12 11 10 10 10 11 10 11 12 12 12 11 11 12 18 19 21 22
4 5 5 5 6 6 5 6 7 8 9 7 6 7 7 10 9 9 10 8 7 15 11 10 10 10 11 12 11 11 10 11 13 11 14 16 20 21
2 4 4 3 4 4 5 4 7 8 8 9 8 8 9 8 8 8 10 10 8 10 7 7 8 9 10 11 11 11 12 12 12 12 13 14 14 16
3 4 5 4 5 6 6 6 5 4 4 8 7 6 6 7 6 8 6 8 9 10 13 9 9 9 9 10 10 11 12 12 12 11 11 9 10 11
1 2 3 4 5 6 6 6 5 7 6 7 7 6 5 4 5 8 6 6 5 8 3 4 5 9 11 9 10 11 11 11 10 9 9 9 8 9
2 2 1 4 3 5 6 7 8 7 6 7 7 7 5 8 6 7 7 7 7 2 6 5 4 6 6 9 3 4 5 7 7 7 6 7 9 9
5 4 3 7 3 5 4 6 6 7 6 6 6 5 6 7 6 8 7 9 6 6 7 7 2 6 8 9 14 12 9 6 5 4 4 6 8 8
5 5 6 3 4 7 6 11 10 6 6 6 4 4 5 5 6 7 8 8 6 5 8 8 4 4 6 8 10 12 12 12 11 10 7 3 5 7
6 5 4 3 4 8 7 6 5 5 1 3 5 5 6 7 7 9 9 8 8 1 7 7 3 3 6 8 9 11 11 11 11 10 10 9 7 5
4 5 5 5 8 8 8 5 6 4 10 7 4 3 3 3 7 10 6 9 5 1 6 7 4 6 4 2 6 9 10 8 6 6 8 8 11 9
5 3 7 4 5 7 7 6 5 4 6 4 6 8 7 4 3 6 8 9 7 1 7 7 5 6 2 2 2 8 8 10 8 7 6 7 10 8
5 3 6 5 4 8 8 6 6 8 4 6 3 3 1 1 3 5 7 7 8 3 7 7 6 5 6 8 5 4 3 5 5 3 8 7 3 3
6 4 4 5 4 6 9 3 6 9 6 4 3 2 3 3 3 4 4 5 5 5 6 7 6 5 6 7 7 6 6 6 6 6 6 5 8 10
5 5 4 7 9 10 6 5 9 6 4 5 3 2 3 3 5 3 4 2 4 2 1 4 6 6 7 7 7 7 8 7 6 5 7 7 8 8
9 7 2 6 7 5 5 9 5 4 5 6 4 3 3 3 2 3 3 3 4 2 5 2 4 6 7 6 7 8 7 6 7 7 7 8 9 9
4 5 5 5 5 5 4 4 4 4 5 4 4 4 4 4 3 3 3 4 4 3 3 2 0 7 7 7 8 7 8 8 7 7 7 9 9 10
6 6 5 5 5 6 5 5 5 4 5 5 5 5 5 5 5 4 4 5 5 4 5 4 5 6 6 7 10 7 8 8 8 9 9 11 11 9
8 8 7 6 6 6 6 6 6 5 3 6 6 6 6 6 5 7 6 5 6 5 5 5 6 7 8 9 6 9 7 8 10 10 10 10 12 11
9 10 9 8 7 7 7 7 7 6 6 6 7 7 7 7 7 7 7 7 6 6 6 7 7 7 8 10 13 11 16 11 9 10 11 11 12 13
9 9 9 9 8 8 8 7 8 8 7 7 7 8 8 8 8 8 8 6 5 8 9 8 5 4 7 9 11 11 10 18 13 11 12 12 13 13
10 10 10 9 9 9 9 9 9 9 9 9 9 9 9 8 9 9 9 9 8 8 8 8 8 8 8 10 13 15 12 11 9 22 22 19 13 15
10 10 10 10 9 10 10 10 11 10 10 10 9 9 9 9 9 10 9 10 9 9 10 10 9 9 10 11 12 13 17 15 12 13 13 17 27 28
Wind_Direction
306 284 283 284 268 274 278 289 289 295 295 347 290 357 332 334 347 308 285 182 197 230 245 243 240 237 230 226 231 235 236 232 237 250 235 223 221 222
287 328 297 293 298 279 284 290 288 280 285 294 310 309 344 321 290 308 304 239 202 214 230 239 241 246 245 235 238 235 239 240 238 243 235 217 223 222
292 274 278 284 284 293 284 279 278 279 284 290 310 289 315 288 311 317 294 297 245 192 198 223 237 239 243 244 242 237 244 257 259 248 236 224 220 216
275 260 264 281 279 239 270 280 305 312 300 298 307 300 301 304 289 305 290 306 311 145 179 218 225 232 236 237 236 241 247 248 250 248 244 239 228 232
353 339 6 347 344 350 310 314 305 283 275 276 298 255 275 293 317 277 287 294 261 176 204 203 216 224 234 238 238 243 251 255 253 249 245 234 245 224
304 7 11 11 0 345 318 312 306 308 299 280 282 295 293 314 275 277 312 299 325 320 287 229 226 194 211 213 222 232 239 248 247 237 238 252 243 234
358 338 31 17 14 348 318 350 316 303 308 313 311 319 346 350 348 331 301 312 286 300 349 295 319 263 176 207 110 194 239 237 250 259 256 248 256 251
320 294 252 243 278 239 263 280 300 304 300 313 318 359 310 330 11 347 320 335 321 65 326 305 333 46 57 39 27 36 33 18 354 337 281 265 266 262
316 305 291 68 334 314 242 237 231 213 247 298 278 274 316 342 348 313 335 317 304 334 326 308 28 34 92 87 64 67 62 60 58 52 36 348 277 265
314 300 304 333 31 325 307 308 294 206 235 303 326 3 355 342 326 303 288 285 254 322 345 289 25 322 103 103 86 78 72 65 59 54 44 24 352 282
308 287 317 298 43 339 301 303 300 293 152 169 167 158 204 283 314 300 345 301 315 69 36 311 341 326 60 166 130 143 125 104 86 74 55 22 357 296
270 225 152 2 0 334 308 300 300 5 327 303 195 203 219 178 249 342 334 322 330 4 43 318 345 350 287 174 224 192 167 153 166 150 107 58 13 335
295 276 116 91 345 315 298 315 357 317 260 260 260 256 267 268 18 19 7 346 339 339 50 317 326 338 313 317 319 291 342 323 328 234 162 118 77 337
282 300 87 15 295 274 280 14 298 279 268 295 289 322 325 334 29 13 11 3 30 10 12 349 317 343 312 307 310 339 325 324 298 313 316 321 227 214
299 15 297 277 262 250 232 257 267 263 310 292 310 326 338 8 301 247 210 234 230 243 10 336 325 335 298 308 312 315 319 301 303 295 309 308 316 309
210 213 257 291 288 327 213 212 249 314 332 309 307 306 285 278 278 314 303 311 279 240 154 230 293 303 312 306 311 301 298 295 310 302 313 303 289 286
316 263 263 259 264 254 246 246 257 260 258 273 265 264 264 265 259 280 281 279 278 299 299 260 34 263 277 276 290 300 307 302 304 314 310 290 295 286
256 268 283 284 276 282 278 272 262 224 255 267 263 255 261 259 257 250 248 269 285 293 300 312 312 307 297 267 217 297 304 303 309 311 294 284 290 291
252 271 276 280 288 284 279 277 274 273 326 269 267 262 261 260 216 250 257 263 268 277 289 297 296 298 304 305 318 227 296 301 304 297 294 295 296 296
255 269 270 266 264 268 268 268 265 264 255 253 257 252 254 256 258 252 252 256 265 279 293 292 280 289 308 316 309 306 208 260 280 291 298 296 297 287
263 251 247 259 260 256 258 258 258 261 266 269 255 250 253 251 251 251 254 248 265 273 271 276 316 111 291 276 279 289 314 200 241 282 297 293 292 293
262 261 259 255 252 251 248 246 245 241 240 241 240 253 253 251 255 252 252 261 266 275 286 292 286 273 280 282 290 295 299 305 248 226 230 243 274 284
256 258 259 254 247 246 244 241 240 244 243 241 248 245 243 248 241 247 256 261 265 273 282 289 284 278 280 287 285 286 289 294 298 303 291 230 230 241